Lid_Strength_Index
1 1 1 1 1 0 1 2 2 3 3 3 4 4 6 7 7 7 6 5 5 4 4 5 5 4 5 5 6 6 6 6 7 6 5 3 3 3 3 2 1 2 2
1 1 1 1 2 2 2 2 2 2 2 3 4 6 7 7 6 5 6 6 6 6 5 5 5 5 5 5 6 5 6 5 6 7 4 3 3 2 1 2 3 3 3
1 1 1 1 2 2 2 2 2 3 4 5 7 7 7 7 7 6 5 5 5 6 6 5 5 5 5 5 5 5 5 5 4 5 5 2 3 2 2 2 3 3 3
1 1 1 1 1 2 2 2 4 6 7 8 7 7 8 7 6 7 6 5 6 7 5 4 5 5 5 5 5 4 4 4 4 4 3 3 3 2 2 4 4 3 4
1 1 1 1 0 1 1 1 2 4 5 6 8 8 7 7 7 6 6 6 6 6 5 5 5 5 6 6 5 4 3 3 3 3 3 3 3 3 4 4 5 4 4
1 1 1 1 1 1 1 3 4 4 5 6 7 6 7 6 8 8 7 6 6 6 6 5 4 5 5 7 6 6 4 3 3 2 2 2 2 3 3 4 5 6 7
2 2 2 2 2 2 3 4 5 5 6 7 7 7 7 6 9 9 9 7 8 7 7 6 5 5 6 4 5 7 6 5 4 2 2 2 2 2 3 4 5 5 5
3 3 3 3 3 4 4 5 6 6 7 7 7 6 6 6 9 9 10 8 8 7 6 5 5 5 5 5 4 3 2 1 1 2 2 1 1 1 2 3 4 5 4
4 4 3 3 4 4 5 5 5 5 6 6 6 6 6 6 9 9 9 8 7 7 6 6 6 6 6 6 4 4 3 1 1 2 2 3 5 5 5 3 5 6 6
4 4 3 4 4 5 5 6 6 6 6 6 7 7 8 7 8 9 8 7 8 7 7 6 7 6 7 6 4 3 3 2 1 1 1 3 4 4 5 4 4 6 6
4 4 4 4 5 6 6 6 6 6 7 7 7 6 7 7 7 10 10 9 10 11 10 8 7 7 7 6 6 3 3 1 2 1 1 1 2 3 2 3 3 4 5
5 5 6 6 6 6 6 7 7 8 8 8 8 8 7 7 10 11 11 12 12 12 11 10 8 8 8 7 6 5 4 4 3 2 1 2 2 2 2 2 2 2 2
6 7 8 8 8 8 8 8 8 9 9 10 10 10 10 9 9 11 12 12 12 12 10 10 10 9 8 7 6 6 5 4 4 4 3 2 1 1 1 1 1 1 1
8 8 9 9 9 9 9 10 10 11 11 12 12 12 12 11 11 12 13 13 13 12 11 10 10 9 8 7 6 5 4 4 4 4 2 1 0 1 2 1 2 2 3
9 10 10 10 11 11 12 12 12 13 14 13 13 13 13 14 14 15 15 14 13 13 13 11 9 8 8 7 6 5 4 4 4 3 3 2 2 1 2 2 2 3 4
11 11 11 11 12 12 12 13 15 15 15 15 16 15 15 15 16 16 15 14 13 12 12 10 9 9 9 9 8 7 5 5 5 3 3 3 3 3 3 3 3 3 4
12 12 13 13 13 13 13 13 13 15 15 15 16 16 16 16 16 16 14 13 12 11 11 10 10 10 10 10 9 8 8 6 6 5 3 3 3 3 3 3 3 3 4
14 15 13 13 13 13 13 14 14 14 15 14 15 16 16 16 16 14 13 12 11 11 10 10 10 10 11 11 10 9 8 8 7 7 3 3 2 3 3 3 3 4 4
14 14 14 14 15 15 14 14 14 15 15 15 14 14 14 15 14 13 12 11 12 12 11 11 11 11 11 11 10 9 9 8 8 6 5 2 2 2 3 3 3 3 4
17 17 16 15 15 16 15 16 16 15 16 15 15 14 14 15 14 12 11 11 12 12 12 12 12 12 11 11 10 10 9 9 8 6 7 3 2 2 3 3 3 3 4
16 17 18 16 16 16 16 16 16 16 16 15 14 14 17 16 14 12 12 12 12 12 12 12 12 12 11 11 11 10 10 10 9 8 9 2 2 2 2 2 2 3 3
17 17 17 17 17 17 17 17 16 16 16 15 14 13 14 13 12 13 12 12 12 12 12 12 13 12 12 12 11 11 11 11 10 10 10 8 2 2 2 3 3 3 3
18 18 18 18 17 18 17 17 17 16 15 15 14 13 13 13 13 13 13 13 13 13 13 13 13 12 12 11 11 11 11 11 10 10 10 8 7 2 2 3 3 3 4
19 18 18 18 18 19 17 17 16 16 15 14 14 13 13 13 13 14 13 13 13 13 13 13 14 13 12 12 11 11 10 9 10 10 9 9 8 2 2 2 3 3 4
18 18 18 18 18 18 17 16 15 15 14 14 14 14 14 14 14 14 13 14 14 14 15 14 13 13 13 13 12 11 10 11 10 9 9 8 7 2 2 3 3 3 3
18 18 18 18 17 17 16 16 15 15 15 15 15 14 14 14 14 14 14 15 15 16 15 14 13 13 13 11 11 11 11 9 9 9 9 8 6 4 2 3 3 3 4